STARLINK-11255, 60730

Orbit data source: Space-Track

STARLINK-11255, 60730 is a payload satellite owned by SpaceX/Seattle (US) in LEO that was launched on Wed, 28 Aug 2024 UTC via an FALCON 9 launch vehicle from the Air Force Eastern Test Range (AFETR). Payload-class satellites include a variety of spacecraft equipped with specific instruments for various scientific and technological missions. These include communications satellites like Starlink; space stations such as the ISS; scientific satellites like the Hubble; Earth observation satellites from companies like Planet Labs, Umbra, and HawkEye 360; GPS; miniature CubeSats for education and research; and military/defense satellites.

Loading next visibility...
Identifier
60730, 2024-152L
Orbit
LEO
Last TLE update
20 hours ago
Origin
Manufacturer
SpaceX/Seattle
Mission
Operational Commercial Communications
Bus & Motor
STARLINK V2M, Unknown motor
Mass
730 kg wet, ~700 kg dry
Launch date (UTC)
2024-08-28 (8 months ago)
Launch vehicle
FALCON 9
Launch site
Air Force Eastern Test Range (AFETR)
Object type
Payload
Rocket body
Debris
Shape & HBR
Box + 2 Pan, 29 m
Radar Cross Section
36.964 m², Large (>1 m²)

Expand to show TLE details & history

TLE from 20 hours ago
0 STARLINK-11255
1 60730U 24152L   25128.42820144  .00000928  00000-0  12518-4 0  9993
2 60730  53.1592 180.8361 0001297 108.8969 251.2190 15.69711878 40906
Epoch: 2025-05-08T10:16Z
Definitive object data (Epoch: 2025-05-08T10:16:36.604Z)
Latitude
0.00001°
Longitude
160.18475°
Altitude
360.918 km
Speed
7.694 km/s
True Right ascension
12h 03m 20s
True Declination
0° 00' 00"
Sunlit
Object was in full shadow at TLE epoch
Visualization TLE readout
Latitude
-19.79265°
Longitude
140.57308°
Altitude
365.845 km
Speed
7.69 km/s
Apparent Right ascension
07h 27m 43s
Apparent Declination
-51° 25' 18"
Sunlit
Object is in full shadow
Visualization observer readout
Local Sidereal Time
14:10:55
Azimuth
229.42° WSW
Elevation
-36.244°
Doppler factor
1
Orbital elements
Apogee altitude
360.856 km
Perigee altitude
359.108 km
Semi-major axis
6,738.119 km
Eccentricity
0.0001297
Inclination
53.1592°
RAAN
180.8361°
Arg. of periapsis
108.8969°
True anomaly
251.20493°
Mean anomaly
251.219°
Eccentric anomaly
251.21196°
Mean motion
3.92406 °/min
BSTAR
0.000012518
Orbital period
91.74 mins
Loading maneuver chart data...
Loading SW <> Apogee altitude chart data...
Loading historical data...
Loading historical data...
Loading historical data...
Loading historical data...
Loading historical data...
Loading historical data...
Loading historical data...

STARLINK-11255 Visibility forecast

Observer location: undefined°, undefined°

Span
Click to sort rows by Start time (UTC) header in descending order
Start Az.
Max El. time (UTC)
Max El. Az.
Max El.
End time (UTC)
End Az.
5 mins2025-05-09 06:20:09.232Z238.337° WSW2025-05-09 06:22:09.232Z283.255° WNW42.131°2025-05-09 06:25:09.232Z45.513° ENE
|